Location: Bulze?ti
(46.2667°N, 22.7333°E)
Time: 02:52:01
(UTC+00:00)

Daily predictions for brighter satellites

Satellite Brightness Start Highest point End
(mag) Time Altitude Azimuth Time Altitude Azimuth Time Altitude Azimuth
Resurs 1-4 Rocket 4.1 00:08:48 10° NNE 00:10:54 25° NNE 00:10:54 25° NNE
CZ-2D R/B 4.0 00:11:45 10° NNE 00:13:55 25° NNE 00:13:55 25° NNE
SJ 16-02 4.2 00:24:44 10° N 00:26:08 15° NNE 00:26:08 15° NNE
Lacrosse 5 3.8 00:34:39 26° NE 00:34:39 26° NE 00:36:54 10° NE
ATLAS 5 CENTAUR R/B 4.3 00:34:43 16° N 00:34:43 16° N 00:36:23 10° NNE
ARIANE 5 R/B 4.1 00:41:24 10° NNE 00:45:10 30° E 00:45:10 30° E
USA 267 4.0 00:41:10 10° ENE 00:46:47 41° ESE 00:46:47 41° ESE
SL-16 R/B 4.4 01:04:18 17° NW 01:04:18 17° NW 01:05:48 10° NNW
ATLAS 2AS CENTAUR R/B 4.3 00:53:24 10° NNW 01:00:16 34° NNE 01:06:40 10° E
ADEOS II 3.0 01:00:48 10° NNE 01:04:24 45° NNE 01:04:24 45° NNE
IDEFIX/ARIANE 42P 3.6 01:05:01 10° NNE 01:09:59 41° E 01:10:25 40° ESE
Cosmos 1697 Rocket 3.6 01:14:51 40° NNW 01:14:51 40° NNW 01:18:53 10° NNE
Cosmos 1980 Rocket 2.4 01:20:38 64° N 01:20:38 64° N 01:25:28 10° NNE
USA 234 3.7 01:16:39 10° ESE 01:23:01 57° NNE 01:28:11 16° NW
Cosmos 2263 Rocket 2.3 01:17:28 10° NNW 01:23:09 72° ENE 01:28:48 10° SSE
Cosmos 2322 Rocket 3.6 01:26:32 24° SE 01:28:45 33° ESE 01:33:46 10° NE
USA 307 4.4 01:29:59 33° NNE 01:29:59 33° NNE 01:32:54 10° NE
Cosmos 44 4.0 01:32:09 44° NNE 01:32:09 44° NNE 01:35:31 10° NNE
USA 308 4.3 01:33:10 33° NNE 01:33:10 33° NNE 01:36:14 10° NE
Cosmos 1934 Rocket 3.8 01:30:29 10° NNW 01:36:29 75° W 01:36:29 75° W
CZ-4B R/B 4.5 01:32:09 10° N 01:35:39 37° NNW 01:35:39 37° NNW
Meteor 1-4 Rocket 4.3 01:39:32 30° ENE 01:39:32 30° ENE 01:42:00 10° NNE
SL-16 R/B 2.9 01:38:10 37° SSE 01:39:53 48° ESE 01:45:19 10° NE
CZ-2D R/B 4.0 01:37:19 10° NNE 01:40:59 60° NE 01:40:59 60° NE
Cosmos 1666 4.4 01:38:08 10° N 01:41:36 32° ENE 01:43:29 20° ESE
Cosmos 1812 3.6 01:46:29 47° NE 01:46:29 47° NE 01:49:28 10° NNE
IRS-1C 4.2 01:41:14 10° N 01:46:11 61° NW 01:46:11 61° NW
Cosmos 1238 Rocket 3.8 01:44:25 10° NNW 01:50:52 63° W 01:51:14 61° WSW
USA 276 4.2 01:52:59 29° ENE 01:52:59 29° ENE 01:54:53 10° E
Cosmos 2227 4.3 01:46:26 10° NNW 01:57:01 13° SSE 01:57:36 10° SSE
Spot 4 Rocket 4.0 01:47:40 10° NNE 01:52:51 84° ESE 01:53:49 60° S
Cosmos 1898 Rocket 3.7 01:47:59 10° NNW 01:53:16 73° ENE 01:58:33 10° SSE
Resurs 1-4 Rocket 4.0 01:49:58 10° NNW 01:51:58 16° NW 01:51:58 16° NW
CZ-2C R/B 4.1 01:49:46 10° NNE 01:54:27 34° E 01:59:07 10° SSE
CZ-2D R/B 4.0 01:53:14 10° NNW 01:55:14 15° NW 01:55:14 15° NW
ASTEX 1 3.4 01:54:22 10° N 01:59:09 62° WNW 01:59:09 62° WNW
MSX 3.9 01:54:04 10° NNE 01:59:53 77° ESE 02:02:51 30° S
BREEZE-M DEB (TANK) 3.9 01:58:35 36° SSW 02:00:50 47° SSE 02:04:29 10° E
Cosmos 1869 Rocket 3.5 01:59:45 10° NNW 02:03:44 72° NW 02:03:44 72° NW
IRIDIUM 104 4.3 01:59:58 10° N 02:05:13 81° E 02:10:04 12° S
BREEZE-M DEB (TANK) 2.7 02:06:02 77° E 02:06:02 77° E 02:11:31 10° ENE
SJ 16-02 3.6 02:02:29 10° NNW 02:02:59 13° NNW 02:02:59 13° NNW
Cosmos 1605 Rocket 4.0 02:02:47 10° NNW 02:09:07 66° W 02:14:28 15° S
Cosmos 2228 Rocket 3.4 02:10:30 48° NW 02:10:30 48° NW 02:14:15 10° N
Meteor 1-5 Rocket 4.0 02:05:04 10° NNW 02:10:23 69° W 02:14:14 19° S
Landsat 5 3.7 02:06:06 10° SSE 02:10:37 79° ENE 02:15:04 10° N
Gbstr 26 Del rocket 4.4 02:06:55 27° WNW 02:11:30 62° SW 02:18:43 10° SE
IRIDIUM 114 4.2 02:09:07 10° N 02:14:22 85° W 02:19:10 12° S
Cosmos 1937 Rocket 3.5 02:09:18 10° NNW 02:14:28 79° ENE 02:19:36 10° SSE
Lacrosse 5 3.2 02:13:50 24° NW 02:15:26 29° NNW 02:19:52 10° NE
Meteor 1-10 Rocket 4.2 02:13:46 32° SSW 02:16:39 78° WNW 02:22:36 10° N
ATLAS 5 CENTAUR R/B 4.4 02:17:58 10° NNW 02:19:31 11° N 02:21:07 10° NNE
Meteor 2-6 Rocket 4.3 02:18:33 39° SW 02:20:32 60° WNW 02:26:22 10° N
H-2A R/B 2.0 02:16:14 10° SSE 02:20:38 85° WSW 02:25:10 10° NNW
Cosmos 841 Rocket 4.2 02:16:21 13° S 02:20:48 52° ESE 02:25:55 10° NNE
CZ-4C R/B 3.0 02:21:21 65° NW 02:21:21 65° NW 02:24:29 10° NNW
USA 32 4.1 02:16:46 10° N 02:22:03 81° E 02:27:18 10° S
PKM 4.0 02:20:45 28° NW 02:22:37 72° NNE 02:26:13 10° ESE
IRIDIUM 103 4.2 02:18:17 10° N 02:23:31 71° W 02:28:17 12° S
ARIANE 5 R/B 3.1 02:20:25 10° N 02:25:02 36° WNW 02:25:30 36° WNW
CSL-04 DEB 4.4 02:21:06 10° S 02:25:25 77° WSW 02:29:50 10° NNW
ERBS 3.3 02:25:39 34° NNW 02:25:39 34° NNW 02:28:37 10° NE
X-37B 2.6 02:27:32 19° SSE 02:27:32 19° SSE 02:28:49 10° SE
Cosmos 1763 Rocket 3.4 02:24:22 34° SSW 02:26:43 76° WNW 02:32:03 10° NNE
FALCON 9 DEB 2.9 02:27:48 79° W 02:27:58 84° NNW 02:31:25 10° ENE
NOSS 3-4 (A) 3.8 02:21:12 10° NW 02:28:13 88° NE 02:36:00 10° SE
NOSS 3-4 (C) 3.9 02:21:18 10° NW 02:28:19 87° NE 02:36:07 10° SE
ERS-2 2.5 02:24:44 10° SSE 02:28:21 64° ENE 02:32:00 10° N
SL-4 R/B 2.2 02:27:59 46° SW 02:29:21 85° SSE 02:34:09 10° ENE
USA 267 3.3 02:24:04 10° NE 02:30:34 70° NNW 02:34:08 29° WSW
CZ-2C R/B 2.9 02:28:37 10° N 02:32:19 51° WNW 02:32:41 49° W
USA 305 4.4 02:34:11 20° NW 02:36:10 29° N 02:39:53 10° ENE
NOSS 3-3 (A) 4.4 02:34:42 30° W 02:37:23 47° NW 02:43:56 10° NNE
NOSS 3-3 (C) 4.4 02:34:49 30° W 02:37:29 47° NW 02:44:01 10° NNE
ADEOS Rocket 3.2 02:33:37 10° SSE 02:40:17 82° ENE 02:46:18 10° NNW
USA 306 4.4 02:38:23 19° NW 02:40:34 28° N 02:44:17 10° ENE
IRIDIUM 106 4.5 02:36:44 10° NNW 02:41:46 49° W 02:46:40 10° SSW
DEBRIS 3.4 02:42:08 31° SSW 02:42:08 31° SSW 02:46:21 10° SE
ADEOS 4.4 02:39:28 10° NNE 02:44:34 51° E 02:49:38 10° S
ADEOS II 3.8 02:42:13 10° NNW 02:45:02 15° NW 02:45:20 15° WNW
Cosmos 540 Rocket 3.5 02:40:44 13° SSW 02:45:26 84° ESE 02:50:39 10° NNE
Cosmos 1727 Rocket 4.1 02:42:11 12° SSW 02:47:57 58° WNW 02:54:12 10° N
Cosmos 2100 Rocket 4.0 02:41:52 10° N 02:48:16 81° W 02:54:38 10° S
IDEFIX/ARIANE 42P 3.4 02:44:52 10° N 02:49:26 31° WNW 02:51:13 25° W
CZ-4B R/B 1.9 02:46:23 10° SSE 02:49:31 58° ENE 02:52:45 10° N
PAYLOAD A 3.7 02:46:03 10° N 02:50:43 69° WNW 02:55:21 10° SSW
ATLAS 2AS CENTAUR R/B 2.7 02:44:32 10° NW 02:52:04 82° SW 02:58:56 10° SSE
Cosmos 921 Rocket 4.4 02:52:56 20° WNW 02:53:12 20° WNW 02:56:19 10° N
Cosmos 2360 Rocket 2.3 02:47:52 10° SSW 02:53:33 81° ESE 02:59:14 10° NNE
Cosmos 1459 Rocket 3.8 02:49:21 10° N 02:55:27 77° W 03:01:28 10° S
Cosmos 1570 Rocket 4.0 02:51:13 10° SSW 02:56:29 82° WNW 03:01:53 10° NNE
Cosmos 1802 Rocket 4.0 02:50:56 10° N 02:57:10 90° WSW 03:03:28 10° S
deb Chang Zheng 4 3.9 02:56:38 10° NNE 03:00:55 66° ESE 03:05:09 10° S
Cosmos 1980 Rocket 3.9 03:02:24 14° WNW 03:04:45 17° NW 03:08:23 10° N
SAR-Lupe-4 3.7 03:01:56 10° SSE 03:05:31 78° ENE 03:09:07 10° N
USA 234 3.3 02:59:39 10° SSE 03:06:03 57° SW 03:12:29 10° WNW
Cosmos 2263 Rocket 3.4 03:02:37 10° WNW 03:06:27 19° W 03:10:16 10° SW
Meteor 1-11 Rocket 4.2 03:01:59 10° NNW 03:07:13 37° W 03:12:18 10° SSW
Cosmos 44 Rocket 3.2 03:03:34 16° SW 03:07:16 71° NW 03:12:10 10° NNE
Cosmos 1484 Rocket 3.3 03:03:48 10° NNE 03:07:47 64° ESE 03:11:46 10° S
Cosmos 1908 Rocket 4.2 03:03:49 10° N 03:08:15 62° ENE 03:12:41 10° SSE
Cosmos 2123 Rocket 4.2 03:03:25 10° S 03:09:39 77° E 03:15:59 10° N
USA 307 4.4 03:06:10 11° WNW 03:09:43 28° N 03:13:27 10° ENE
Cosmos 1844 Rocket 2.6 03:06:06 10° NNW 03:11:45 75° WSW 03:17:23 10° SSE
Cosmos 2322 Rocket 2.6 03:08:24 16° WSW 03:12:39 44° NW 03:18:07 10° NNE
USA 308 4.4 03:09:22 10° WNW 03:13:05 29° N 03:16:49 10° ENE
Cosmos 2278 Rocket 4.2 03:08:36 10° N 03:13:31 29° NE 03:18:23 10° ESE
Meteor 1-4 Rocket 4.2 03:13:45 16° WNW 03:13:56 16° WNW 03:16:11 10° NNW
Okean 1 3.5 03:10:37 10° S 03:14:39 76° E 03:18:43 10° NNE
Okean 1-7 4.2 03:11:48 10° SSE 03:15:51 45° E 03:19:55 10° NNE
Intercosmos 25 2.9 03:12:27 10° S 03:16:15 88° W 03:19:27 10° N
Meteor 1-27 Rocket 4.2 03:11:04 10° SW 03:16:40 43° WNW 03:22:16 10° N
Cosmos 1666 4.1 03:14:12 10° NW 03:16:56 19° W 03:18:11 16° WSW
Cosmos 1844 3.6 03:11:29 10° NNW 03:17:05 82° WSW 03:22:38 10° SSE
Cosmos 1707 Rocket 4.5 03:14:38 15° SW 03:17:27 28° WNW 03:21:14 10° NNW
Cosmos 1515 4.2 03:14:54 10° S 03:18:39 63° E 03:22:24 10° NNE
SJ-6F 4.4 03:15:01 10° N 03:19:05 67° WNW 03:23:07 10° SSW
Meteor 1-31 Rocket 3.0 03:16:29 10° NNE 03:20:19 71° ESE 03:24:10 10° S
SL-16 R/B 3.1 03:20:04 14° WSW 03:24:11 31° NW 03:29:15 10° N
SAR-Lupe-1 4.0 03:20:59 10° S 03:24:31 66° WSW 03:28:06 10° NNW
Cosmos 1437 Rocket 2.6 03:21:54 10° SSW 03:25:40 67° WNW 03:29:31 10° N
CZ-3B R/B 4.3 03:21:50 10° WNW 03:26:05 44° NNE 03:42:48 10° E
USA 276 2.1 03:25:21 12° WNW 03:28:15 73° SSW 03:31:26 10° ESE
Cosmos 372 Rocket 4.1 03:23:50 10° NNW 03:28:48 49° WSW 03:33:41 10° S
Cosmos 1536 4.1 03:26:11 10° NW 03:29:18 21° W 03:32:23 10° SW
Cosmos 2237 4.5 03:25:41 10° SW 03:31:14 51° WNW 03:36:48 10° NNE
Cosmos 2173 Rocket 4.4 03:25:54 10° NNW 03:31:47 42° W 03:37:41 10° SSW
Cosmos 1733 Rocket 3.8 03:28:03 10° NNW 03:31:48 29° W 03:35:32 10° SSW
CZ-4B R/B 3.5 03:28:45 10° NNE 03:32:19 53° E 03:35:50 10° S
CZ-2C R/B 3.2 03:27:58 10° N 03:32:38 36° WNW 03:37:19 10° SW
ATLAS CENTAUR R/B 2.7 03:25:59 10° NW 03:34:25 71° NNE 03:37:49 10° ESE
CZ-4B R/B 4.1 03:31:45 10° N 03:36:09 78° WNW 03:40:36 10° SSW
Cosmos 2242 Rocket 3.5 03:32:59 10° SSW 03:37:22 73° W 03:41:49 10° N
Cosmos 2285 Rocket 4.5 03:31:15 10° NNW 03:37:40 70° ENE 03:44:05 10° SSE
ALOS 2.3 03:33:23 10° N 03:38:02 68° WNW 03:42:39 10° SSW
SKYMED 2 3.6 03:36:15 10° SSE 03:40:36 88° ENE 03:44:58 10° NNW
Cosmos 2219 Rocket 2.5 03:36:29 10° SSW 03:42:08 74° ESE 03:47:50 10° NNE
CZ-4C R/B 3.2 03:35:10 10° NW 03:42:23 82° NE 03:50:43 10° SE
Cosmos 1689 Rocket 2.0 03:40:36 10° S 03:43:31 60° WSW 03:46:29 10° NNW
Meteor 2-4 Rocket 4.3 03:38:24 10° S 03:43:45 60° E 03:49:02 10° NNE
Cosmos 2298 Rocket 4.2 03:39:55 10° NNW 03:45:05 53° WSW 03:50:13 10° S
